Location: Falniów
(50.3639°N, 19.9642°E)
Time: 18:24:55
(UTC+00:00)

Cosmos 2082 Rocket - Pass Details

Date: 18 January 2026
Orbit: 831 x 853 km, 71.0° (Epoch: 16 February)

Event Time Altitude Azimuth Distance (km) Brightness Sun altitude
Exits shadow 04:12:01 30° 327° (NNW) 1,471 3.1 -21.7°
Maximum altitude 04:14:56 82° 243° (WSW) 862 2.1 -21.3°
Drops below altitude 10° 04:20:37 10° 157° (SSE) 2,471 5.0 -20.4°
Sets 04:23:03 0° 156° (SSE) 3,405 5.8 -20.0°
